#datetime,building,power
2022-05-13T00:00:00,thn,14.58
2022-05-13T00:01:00,thn,14.64
2022-05-13T00:02:00,thn,14.73
2022-05-13T00:03:00,thn,14.69
2022-05-13T00:04:00,thn,12.84
2022-05-13T00:05:00,thn,13.19
2022-05-13T00:06:00,thn,16.09
2022-05-13T00:07:00,thn,15.89
2022-05-13T00:08:00,thn,15.80
2022-05-13T00:09:00,thn,18.38
2022-05-13T00:10:00,thn,18.62
2022-05-13T00:11:00,thn,16.47
2022-05-13T00:12:00,thn,13.46
2022-05-13T00:13:00,thn,16.02
2022-05-13T00:14:00,thn,16.21
2022-05-13T00:15:00,thn,16.29
2022-05-13T00:16:00,thn,14.15
2022-05-13T00:17:00,thn,13.41
2022-05-13T00:18:00,thn,13.43
2022-05-13T00:19:00,thn,13.52
2022-05-13T00:20:00,thn,13.55
2022-05-13T00:21:00,thn,13.46
2022-05-13T00:22:00,thn,13.65
2022-05-13T00:23:00,thn,15.86
2022-05-13T00:24:00,thn,15.56
2022-05-13T00:25:00,thn,17.65
2022-05-13T00:26:00,thn,14.98
2022-05-13T00:27:00,thn,15.94
2022-05-13T00:28:00,thn,16.00
2022-05-13T00:29:00,thn,18.63
2022-05-13T00:30:00,thn,18.72
2022-05-13T00:31:00,thn,21.96
2022-05-13T00:32:00,thn,21.09
2022-05-13T00:33:00,thn,19.02
2022-05-13T00:34:00,thn,16.82
2022-05-13T00:35:00,thn,19.30
2022-05-13T00:36:00,thn,16.40
2022-05-13T00:37:00,thn,15.70
2022-05-13T00:38:00,thn,13.01
2022-05-13T00:39:00,thn,13.87
2022-05-13T00:40:00,thn,13.82
2022-05-13T00:41:00,thn,13.94
2022-05-13T00:42:00,thn,14.06
2022-05-13T00:43:00,thn,13.96
2022-05-13T00:44:00,thn,14.30
2022-05-13T00:45:00,thn,11.53
2022-05-13T00:46:00,thn,11.45
2022-05-13T00:47:00,thn,11.55
2022-05-13T00:48:00,thn,13.40
2022-05-13T00:49:00,thn,13.43
2022-05-13T00:50:00,thn,13.41
2022-05-13T00:51:00,thn,13.43
2022-05-13T00:52:00,thn,13.54
2022-05-13T00:53:00,thn,13.60
2022-05-13T00:54:00,thn,15.66
2022-05-13T00:55:00,thn,18.36
2022-05-13T00:56:00,thn,16.27
2022-05-13T00:57:00,thn,18.88
2022-05-13T00:58:00,thn,18.69
2022-05-13T00:59:00,thn,18.64
2022-05-13T01:00:00,thn,18.61
2022-05-13T01:01:00,thn,18.68
2022-05-13T01:02:00,thn,16.32
2022-05-13T01:03:00,thn,13.79
2022-05-13T01:04:00,thn,14.19
2022-05-13T01:05:00,thn,12.89
2022-05-13T01:06:00,thn,11.62
2022-05-13T01:07:00,thn,11.60
2022-05-13T01:08:00,thn,11.54
2022-05-13T01:09:00,thn,10.76
2022-05-13T01:10:00,thn,10.11
2022-05-13T01:11:00,thn,10.36
2022-05-13T01:12:00,thn,12.43
2022-05-13T01:13:00,thn,15.28
2022-05-13T01:14:00,thn,15.10
2022-05-13T01:15:00,thn,15.14
2022-05-13T01:16:00,thn,15.10
2022-05-13T01:17:00,thn,14.95
2022-05-13T01:18:00,thn,15.36
2022-05-13T01:19:00,thn,14.64
2022-05-13T01:20:00,thn,12.48
2022-05-13T01:21:00,thn,12.60
2022-05-13T01:22:00,thn,12.54
2022-05-13T01:23:00,thn,13.33
2022-05-13T01:24:00,thn,16.09
2022-05-13T01:25:00,thn,16.33
2022-05-13T01:26:00,thn,15.94
2022-05-13T01:27:00,thn,15.71
2022-05-13T01:28:00,thn,15.91
2022-05-13T01:29:00,thn,15.88
2022-05-13T01:30:00,thn,16.05
2022-05-13T01:31:00,thn,12.30
2022-05-13T01:32:00,thn,12.29
2022-05-13T01:33:00,thn,10.17
2022-05-13T01:34:00,thn,10.17
2022-05-13T01:35:00,thn,11.10
2022-05-13T01:36:00,thn,11.05
2022-05-13T01:37:00,thn,11.02
2022-05-13T01:38:00,thn,10.99
2022-05-13T01:39:00,thn,13.14
2022-05-13T01:40:00,thn,15.54
2022-05-13T01:41:00,thn,15.62
2022-05-13T01:42:00,thn,15.49
2022-05-13T01:43:00,thn,15.64
2022-05-13T01:44:00,thn,15.42
2022-05-13T01:45:00,thn,15.22
2022-05-13T01:46:00,thn,13.09
2022-05-13T01:47:00,thn,13.08
2022-05-13T01:48:00,thn,10.78
2022-05-13T01:49:00,thn,10.58
2022-05-13T01:50:00,thn,10.58
2022-05-13T01:51:00,thn,10.72
2022-05-13T01:52:00,thn,10.63
2022-05-13T01:53:00,thn,10.47
2022-05-13T01:54:00,thn,10.46
2022-05-13T01:55:00,thn,10.56
2022-05-13T01:56:00,thn,10.74
2022-05-13T01:57:00,thn,9.70
2022-05-13T01:58:00,thn,9.66
2022-05-13T01:59:00,thn,9.57
2022-05-13T02:00:00,thn,12.44
2022-05-13T02:01:00,thn,12.37
2022-05-13T02:02:00,thn,12.43
2022-05-13T02:03:00,thn,11.61
2022-05-13T02:04:00,thn,11.65
2022-05-13T02:05:00,thn,11.70
2022-05-13T02:06:00,thn,11.88
2022-05-13T02:07:00,thn,10.64
2022-05-13T02:08:00,thn,10.77
2022-05-13T02:09:00,thn,15.34
2022-05-13T02:10:00,thn,14.49
2022-05-13T02:11:00,thn,15.21
2022-05-13T02:12:00,thn,15.13
2022-05-13T02:13:00,thn,15.11
2022-05-13T02:14:00,thn,14.37
2022-05-13T02:15:00,thn,13.14
2022-05-13T02:16:00,thn,11.26
2022-05-13T02:17:00,thn,10.82
2022-05-13T02:18:00,thn,9.86
2022-05-13T02:19:00,thn,10.50
2022-05-13T02:20:00,thn,9.90
2022-05-13T02:21:00,thn,10.64
2022-05-13T02:22:00,thn,9.70
2022-05-13T02:23:00,thn,10.44
2022-05-13T02:24:00,thn,9.96
2022-05-13T02:25:00,thn,10.68
2022-05-13T02:26:00,thn,9.95
2022-05-13T02:27:00,thn,10.56
2022-05-13T02:28:00,thn,9.84
2022-05-13T02:29:00,thn,9.67
2022-05-13T02:30:00,thn,9.67
2022-05-13T02:31:00,thn,9.76
2022-05-13T02:32:00,thn,12.27
2022-05-13T02:33:00,thn,11.97
2022-05-13T02:34:00,thn,11.78
2022-05-13T02:35:00,thn,11.71
2022-05-13T02:36:00,thn,11.77
2022-05-13T02:37:00,thn,14.84
2022-05-13T02:38:00,thn,14.17
2022-05-13T02:39:00,thn,14.14
2022-05-13T02:40:00,thn,14.09
2022-05-13T02:41:00,thn,13.91
2022-05-13T02:42:00,thn,13.75
2022-05-13T02:43:00,thn,11.85
2022-05-13T02:44:00,thn,14.14
2022-05-13T02:45:00,thn,11.57
2022-05-13T02:46:00,thn,11.41
2022-05-13T02:47:00,thn,11.41
2022-05-13T02:48:00,thn,11.41
2022-05-13T02:49:00,thn,11.32
2022-05-13T02:50:00,thn,11.32
2022-05-13T02:51:00,thn,9.35
2022-05-13T02:52:00,thn,9.20
2022-05-13T02:53:00,thn,9.14
2022-05-13T02:54:00,thn,9.11
2022-05-13T02:55:00,thn,11.62
2022-05-13T02:56:00,thn,11.87
2022-05-13T02:57:00,thn,11.61
2022-05-13T02:58:00,thn,11.92
2022-05-13T02:59:00,thn,12.05
2022-05-13T03:00:00,thn,9.57
2022-05-13T03:01:00,thn,9.55
2022-05-13T03:02:00,thn,9.58
2022-05-13T03:03:00,thn,9.40
2022-05-13T03:04:00,thn,9.12
2022-05-13T03:05:00,thn,9.15
2022-05-13T03:06:00,thn,9.05
2022-05-13T03:07:00,thn,9.24
2022-05-13T03:08:00,thn,11.74
2022-05-13T03:09:00,thn,11.61
2022-05-13T03:10:00,thn,11.59
2022-05-13T03:11:00,thn,11.53
2022-05-13T03:12:00,thn,13.84
2022-05-13T03:13:00,thn,13.86
2022-05-13T03:14:00,thn,13.63
2022-05-13T03:15:00,thn,13.65
2022-05-13T03:16:00,thn,13.63
2022-05-13T03:17:00,thn,14.14
2022-05-13T03:18:00,thn,14.06
2022-05-13T03:19:00,thn,9.37
2022-05-13T03:20:00,thn,9.37
2022-05-13T03:21:00,thn,9.35
2022-05-13T03:22:00,thn,9.11
2022-05-13T03:23:00,thn,9.13
2022-05-13T03:24:00,thn,9.29
2022-05-13T03:25:00,thn,9.08
2022-05-13T03:26:00,thn,9.03
2022-05-13T03:27:00,thn,9.05
2022-05-13T03:28:00,thn,9.03
2022-05-13T03:29:00,thn,9.27
2022-05-13T03:30:00,thn,9.06
2022-05-13T03:31:00,thn,11.11
2022-05-13T03:32:00,thn,11.14
2022-05-13T03:33:00,thn,11.16
2022-05-13T03:34:00,thn,11.21
2022-05-13T03:35:00,thn,11.34
2022-05-13T03:36:00,thn,9.30
2022-05-13T03:37:00,thn,9.43
2022-05-13T03:38:00,thn,9.30
2022-05-13T03:39:00,thn,9.51
2022-05-13T03:40:00,thn,9.52
2022-05-13T03:41:00,thn,9.33
2022-05-13T03:42:00,thn,9.34
2022-05-13T03:43:00,thn,9.20
2022-05-13T03:44:00,thn,9.43
2022-05-13T03:45:00,thn,9.43
2022-05-13T03:46:00,thn,9.41
2022-05-13T03:47:00,thn,9.48
2022-05-13T03:48:00,thn,9.45
2022-05-13T03:49:00,thn,9.27
2022-05-13T03:50:00,thn,11.44
2022-05-13T03:51:00,thn,11.27
2022-05-13T03:52:00,thn,11.23
2022-05-13T03:53:00,thn,11.33
2022-05-13T03:54:00,thn,11.22
2022-05-13T03:55:00,thn,11.31
2022-05-13T03:56:00,thn,11.24
2022-05-13T03:57:00,thn,9.34
2022-05-13T03:58:00,thn,11.86
2022-05-13T03:59:00,thn,12.83
2022-05-13T04:00:00,thn,14.49
2022-05-13T04:01:00,thn,14.49
2022-05-13T04:02:00,thn,14.29
2022-05-13T04:03:00,thn,14.24
2022-05-13T04:04:00,thn,9.29
2022-05-13T04:05:00,thn,9.35
2022-05-13T04:06:00,thn,9.27
2022-05-13T04:07:00,thn,9.21
2022-05-13T04:08:00,thn,9.18
2022-05-13T04:09:00,thn,9.20
2022-05-13T04:10:00,thn,9.18
2022-05-13T04:11:00,thn,9.37
2022-05-13T04:12:00,thn,9.36
2022-05-13T04:13:00,thn,9.10
2022-05-13T04:14:00,thn,9.10
2022-05-13T04:15:00,thn,9.07
2022-05-13T04:16:00,thn,9.03
2022-05-13T04:17:00,thn,9.08
2022-05-13T04:18:00,thn,9.07
2022-05-13T04:19:00,thn,9.06
2022-05-13T04:20:00,thn,9.08
2022-05-13T04:21:00,thn,9.32
2022-05-13T04:22:00,thn,9.40
2022-05-13T04:23:00,thn,9.21
2022-05-13T04:24:00,thn,9.20
2022-05-13T04:25:00,thn,9.38
2022-05-13T04:26:00,thn,9.46
2022-05-13T04:27:00,thn,9.47
2022-05-13T04:28:00,thn,11.52
2022-05-13T04:29:00,thn,13.55
2022-05-13T04:30:00,thn,13.21
2022-05-13T04:31:00,thn,13.25
2022-05-13T04:32:00,thn,13.20
2022-05-13T04:33:00,thn,11.43
2022-05-13T04:34:00,thn,11.29
2022-05-13T04:35:00,thn,11.05
2022-05-13T04:36:00,thn,9.05
2022-05-13T04:37:00,thn,9.09
2022-05-13T04:38:00,thn,9.08
2022-05-13T04:39:00,thn,9.13
2022-05-13T04:40:00,thn,9.10
2022-05-13T04:41:00,thn,9.29
2022-05-13T04:42:00,thn,9.11
2022-05-13T04:43:00,thn,11.45
2022-05-13T04:44:00,thn,11.51
2022-05-13T04:45:00,thn,11.50
2022-05-13T04:46:00,thn,11.49
2022-05-13T04:47:00,thn,11.48
2022-05-13T04:48:00,thn,11.46
2022-05-13T04:49:00,thn,11.44
2022-05-13T04:50:00,thn,9.26
2022-05-13T04:51:00,thn,11.27
2022-05-13T04:52:00,thn,11.08
2022-05-13T04:53:00,thn,11.13
2022-05-13T04:54:00,thn,11.08
2022-05-13T04:55:00,thn,11.18
2022-05-13T04:56:00,thn,11.19
2022-05-13T04:57:00,thn,11.18
2022-05-13T04:58:00,thn,11.14
2022-05-13T04:59:00,thn,11.98
2022-05-13T05:00:00,thn,11.55
2022-05-13T05:01:00,thn,11.47
2022-05-13T05:02:00,thn,11.50
2022-05-13T05:03:00,thn,9.30
2022-05-13T05:04:00,thn,9.26
2022-05-13T05:05:00,thn,9.29
2022-05-13T05:06:00,thn,9.24
2022-05-13T05:07:00,thn,9.26
2022-05-13T05:08:00,thn,9.28
2022-05-13T05:09:00,thn,9.28
2022-05-13T05:10:00,thn,9.33
2022-05-13T05:11:00,thn,9.68
2022-05-13T05:12:00,thn,9.58
2022-05-13T05:13:00,thn,9.36
2022-05-13T05:14:00,thn,10.12
2022-05-13T05:15:00,thn,9.41
2022-05-13T05:16:00,thn,9.43
2022-05-13T05:17:00,thn,9.44
2022-05-13T05:18:00,thn,9.42
2022-05-13T05:19:00,thn,11.29
2022-05-13T05:20:00,thn,11.64
2022-05-13T05:21:00,thn,11.62
2022-05-13T05:22:00,thn,11.31
2022-05-13T05:23:00,thn,11.35
2022-05-13T05:24:00,thn,11.32
2022-05-13T05:25:00,thn,11.32
2022-05-13T05:26:00,thn,11.24
2022-05-13T05:27:00,thn,9.16
2022-05-13T05:28:00,thn,9.29
2022-05-13T05:29:00,thn,9.32
2022-05-13T05:30:00,thn,9.48
2022-05-13T05:31:00,thn,9.56
2022-05-13T05:32:00,thn,9.37
2022-05-13T05:33:00,thn,9.38
2022-05-13T05:34:00,thn,9.33
2022-05-13T05:35:00,thn,9.38
2022-05-13T05:36:00,thn,9.32
2022-05-13T05:37:00,thn,9.42
2022-05-13T05:38:00,thn,11.84
2022-05-13T05:39:00,thn,13.89
2022-05-13T05:40:00,thn,14.13
2022-05-13T05:41:00,thn,13.88
2022-05-13T05:42:00,thn,13.86
2022-05-13T05:43:00,thn,13.74
2022-05-13T05:44:00,thn,9.35
2022-05-13T05:45:00,thn,9.33
2022-05-13T05:46:00,thn,9.31
2022-05-13T05:47:00,thn,9.26
2022-05-13T05:48:00,thn,9.12
2022-05-13T05:49:00,thn,9.17
2022-05-13T05:50:00,thn,9.38
2022-05-13T05:51:00,thn,9.16
2022-05-13T05:52:00,thn,9.14
2022-05-13T05:53:00,thn,9.01
2022-05-13T05:54:00,thn,9.17
2022-05-13T05:55:00,thn,9.17
2022-05-13T05:56:00,thn,8.89
2022-05-13T05:57:00,thn,10.89
2022-05-13T05:58:00,thn,10.96
2022-05-13T05:59:00,thn,10.99
2022-05-13T06:00:00,thn,11.19
2022-05-13T06:01:00,thn,10.99
2022-05-13T06:02:00,thn,11.20
2022-05-13T06:03:00,thn,10.92
2022-05-13T06:04:00,thn,8.89
2022-05-13T06:05:00,thn,8.95
2022-05-13T06:06:00,thn,8.94
2022-05-13T06:07:00,thn,8.95
2022-05-13T06:08:00,thn,9.07
2022-05-13T06:09:00,thn,9.02
2022-05-13T06:10:00,thn,8.95
2022-05-13T06:11:00,thn,8.90
2022-05-13T06:12:00,thn,8.93
2022-05-13T06:13:00,thn,8.95
2022-05-13T06:14:00,thn,8.88
2022-05-13T06:15:00,thn,8.88
2022-05-13T06:16:00,thn,8.93
2022-05-13T06:17:00,thn,8.92
2022-05-13T06:18:00,thn,9.13
2022-05-13T06:19:00,thn,9.12
2022-05-13T06:20:00,thn,8.95
2022-05-13T06:21:00,thn,9.13
2022-05-13T06:22:00,thn,8.99
2022-05-13T06:23:00,thn,8.97
2022-05-13T06:24:00,thn,8.84
2022-05-13T06:25:00,thn,8.82
2022-05-13T06:26:00,thn,8.97
2022-05-13T06:27:00,thn,9.00
2022-05-13T06:28:00,thn,9.20
2022-05-13T06:29:00,thn,9.23
2022-05-13T06:30:00,thn,9.05
2022-05-13T06:31:00,thn,11.08
2022-05-13T06:32:00,thn,11.00
2022-05-13T06:33:00,thn,10.98
2022-05-13T06:34:00,thn,10.91
2022-05-13T06:35:00,thn,11.22
2022-05-13T06:36:00,thn,13.40
2022-05-13T06:37:00,thn,13.70
2022-05-13T06:38:00,thn,11.75
2022-05-13T06:39:00,thn,11.59
2022-05-13T06:40:00,thn,11.80
2022-05-13T06:41:00,thn,11.62
2022-05-13T06:42:00,thn,9.21
2022-05-13T06:43:00,thn,9.29
2022-05-13T06:44:00,thn,9.71
2022-05-13T06:45:00,thn,9.24
2022-05-13T06:46:00,thn,9.40
2022-05-13T06:47:00,thn,9.41
2022-05-13T06:48:00,thn,9.18
2022-05-13T06:49:00,thn,9.30
2022-05-13T06:50:00,thn,9.23
2022-05-13T06:51:00,thn,9.25
2022-05-13T06:52:00,thn,9.16
2022-05-13T06:53:00,thn,9.18
2022-05-13T06:54:00,thn,9.18
2022-05-13T06:55:00,thn,9.18
2022-05-13T06:56:00,thn,9.29
2022-05-13T06:57:00,thn,9.07
2022-05-13T06:58:00,thn,9.25
2022-05-13T06:59:00,thn,9.22
2022-05-13T07:00:00,thn,9.17
2022-05-13T07:01:00,thn,11.13
2022-05-13T07:02:00,thn,11.10
2022-05-13T07:03:00,thn,11.24
2022-05-13T07:04:00,thn,11.49
2022-05-13T07:05:00,thn,11.46
2022-05-13T07:06:00,thn,9.31
2022-05-13T07:07:00,thn,12.67
2022-05-13T07:08:00,thn,12.24
2022-05-13T07:09:00,thn,13.97
2022-05-13T07:10:00,thn,13.99
2022-05-13T07:11:00,thn,13.96
2022-05-13T07:12:00,thn,11.29
2022-05-13T07:13:00,thn,11.53
2022-05-13T07:14:00,thn,12.08
2022-05-13T07:15:00,thn,9.53
2022-05-13T07:16:00,thn,9.57
2022-05-13T07:17:00,thn,9.51
2022-05-13T07:18:00,thn,9.35
2022-05-13T07:19:00,thn,9.31
2022-05-13T07:20:00,thn,9.30
2022-05-13T07:21:00,thn,9.27
2022-05-13T07:22:00,thn,9.20
2022-05-13T07:23:00,thn,11.87
2022-05-13T07:24:00,thn,11.73
2022-05-13T07:25:00,thn,11.76
2022-05-13T07:26:00,thn,11.79
2022-05-13T07:27:00,thn,11.75
2022-05-13T07:28:00,thn,11.65
2022-05-13T07:29:00,thn,11.65
2022-05-13T07:30:00,thn,9.22
2022-05-13T07:31:00,thn,9.20
2022-05-13T07:32:00,thn,9.40
2022-05-13T07:33:00,thn,9.22
2022-05-13T07:34:00,thn,9.19
2022-05-13T07:35:00,thn,9.16
2022-05-13T07:36:00,thn,9.15
2022-05-13T07:37:00,thn,9.24
2022-05-13T07:38:00,thn,9.09
2022-05-13T07:39:00,thn,9.00
2022-05-13T07:40:00,thn,9.06
2022-05-13T07:41:00,thn,9.29
2022-05-13T07:42:00,thn,9.28
2022-05-13T07:43:00,thn,9.09
2022-05-13T07:44:00,thn,12.27
2022-05-13T07:45:00,thn,9.39
2022-05-13T07:46:00,thn,11.20
2022-05-13T07:47:00,thn,11.31
2022-05-13T07:48:00,thn,9.32
2022-05-13T07:49:00,thn,8.55
2022-05-13T07:50:00,thn,8.44
2022-05-13T07:51:00,thn,8.41
2022-05-13T07:52:00,thn,6.41
2022-05-13T07:53:00,thn,6.48
2022-05-13T07:54:00,thn,6.66
2022-05-13T07:55:00,thn,6.52
2022-05-13T07:56:00,thn,6.66
2022-05-13T07:57:00,thn,6.46
2022-05-13T07:58:00,thn,6.51
2022-05-13T07:59:00,thn,6.45
2022-05-13T08:00:00,thn,6.43
2022-05-13T08:01:00,thn,6.48
2022-05-13T08:02:00,thn,7.86
2022-05-13T08:03:00,thn,6.70
2022-05-13T08:04:00,thn,6.73
2022-05-13T08:05:00,thn,6.88
2022-05-13T08:06:00,thn,6.86
2022-05-13T08:07:00,thn,6.84
2022-05-13T08:08:00,thn,6.81
2022-05-13T08:09:00,thn,9.48
2022-05-13T08:10:00,thn,9.52
2022-05-13T08:11:00,thn,9.48
2022-05-13T08:12:00,thn,9.39
2022-05-13T08:13:00,thn,9.46
2022-05-13T08:14:00,thn,9.51
2022-05-13T08:15:00,thn,6.99
2022-05-13T08:16:00,thn,6.92
2022-05-13T08:17:00,thn,9.91
2022-05-13T08:18:00,thn,9.70
2022-05-13T08:19:00,thn,9.54
2022-05-13T08:20:00,thn,9.47
2022-05-13T08:21:00,thn,11.42
2022-05-13T08:22:00,thn,9.50
2022-05-13T08:23:00,thn,8.71
2022-05-13T08:24:00,thn,8.70
2022-05-13T08:25:00,thn,8.74
2022-05-13T08:26:00,thn,11.34
2022-05-13T08:27:00,thn,9.35
2022-05-13T08:28:00,thn,9.30
2022-05-13T08:29:00,thn,9.33
2022-05-13T08:30:00,thn,9.32
2022-05-13T08:31:00,thn,9.74
2022-05-13T08:32:00,thn,7.12
2022-05-13T08:33:00,thn,8.15
2022-05-13T08:34:00,thn,9.37
2022-05-13T08:35:00,thn,9.30
2022-05-13T08:36:00,thn,7.64
2022-05-13T08:37:00,thn,8.65
2022-05-13T08:38:00,thn,7.38
2022-05-13T08:39:00,thn,7.45
2022-05-13T08:40:00,thn,8.60
2022-05-13T08:41:00,thn,7.35
2022-05-13T08:42:00,thn,8.41
2022-05-13T08:43:00,thn,8.74
2022-05-13T08:44:00,thn,9.92
2022-05-13T08:45:00,thn,10.02
2022-05-13T08:46:00,thn,10.03
2022-05-13T08:47:00,thn,10.07
2022-05-13T08:48:00,thn,9.93
2022-05-13T08:49:00,thn,9.94
2022-05-13T08:50:00,thn,12.05
2022-05-13T08:51:00,thn,9.48
2022-05-13T08:52:00,thn,9.61
2022-05-13T08:53:00,thn,9.66
2022-05-13T08:54:00,thn,9.53
2022-05-13T08:55:00,thn,9.80
2022-05-13T08:56:00,thn,10.50
2022-05-13T08:57:00,thn,10.38
2022-05-13T08:58:00,thn,8.30
2022-05-13T08:59:00,thn,8.30
2022-05-13T09:00:00,thn,8.30
2022-05-13T09:01:00,thn,8.33
2022-05-13T09:02:00,thn,11.30
2022-05-13T09:03:00,thn,11.03
2022-05-13T09:04:00,thn,11.00
2022-05-13T09:05:00,thn,10.59
2022-05-13T09:06:00,thn,8.53
2022-05-13T09:07:00,thn,7.78
2022-05-13T09:08:00,thn,7.75
2022-05-13T09:09:00,thn,7.76
2022-05-13T09:10:00,thn,7.63
2022-05-13T09:11:00,thn,7.07
2022-05-13T09:12:00,thn,7.68
2022-05-13T09:13:00,thn,7.85
2022-05-13T09:14:00,thn,7.75
2022-05-13T09:15:00,thn,7.74
2022-05-13T09:16:00,thn,7.71
2022-05-13T09:17:00,thn,11.56
2022-05-13T09:18:00,thn,10.35
2022-05-13T09:19:00,thn,12.93
2022-05-13T09:20:00,thn,12.94
2022-05-13T09:21:00,thn,14.11
2022-05-13T09:22:00,thn,12.95
2022-05-13T09:23:00,thn,15.03
2022-05-13T09:24:00,thn,15.13
2022-05-13T09:25:00,thn,9.99
2022-05-13T09:26:00,thn,10.10
2022-05-13T09:27:00,thn,9.90
2022-05-13T09:28:00,thn,10.36
2022-05-13T09:29:00,thn,11.07
2022-05-13T09:30:00,thn,12.75
2022-05-13T09:31:00,thn,10.62
2022-05-13T09:32:00,thn,10.69
2022-05-13T09:33:00,thn,10.63
2022-05-13T09:34:00,thn,9.92
2022-05-13T09:35:00,thn,7.15
2022-05-13T09:36:00,thn,7.31
2022-05-13T09:37:00,thn,7.26
2022-05-13T09:38:00,thn,7.24
2022-05-13T09:39:00,thn,7.19
2022-05-13T09:40:00,thn,7.21
2022-05-13T09:41:00,thn,7.14
2022-05-13T09:42:00,thn,8.07
2022-05-13T09:43:00,thn,7.88
2022-05-13T09:44:00,thn,7.89
2022-05-13T09:45:00,thn,7.88
2022-05-13T09:46:00,thn,7.83
2022-05-13T09:47:00,thn,7.72
2022-05-13T09:48:00,thn,7.63
2022-05-13T09:49:00,thn,6.98
2022-05-13T09:50:00,thn,9.63
2022-05-13T09:51:00,thn,9.60
2022-05-13T09:52:00,thn,9.53
2022-05-13T09:53:00,thn,9.64
2022-05-13T09:54:00,thn,9.60
2022-05-13T09:55:00,thn,11.75
2022-05-13T09:56:00,thn,11.72
2022-05-13T09:57:00,thn,13.02
2022-05-13T09:58:00,thn,12.23
2022-05-13T09:59:00,thn,12.02
2022-05-13T10:00:00,thn,12.84
2022-05-13T10:01:00,thn,12.79
2022-05-13T10:02:00,thn,12.84
2022-05-13T10:03:00,thn,7.72
2022-05-13T10:04:00,thn,7.72
2022-05-13T10:05:00,thn,7.82
2022-05-13T10:06:00,thn,7.81
2022-05-13T10:07:00,thn,7.83
2022-05-13T10:08:00,thn,7.81
2022-05-13T10:09:00,thn,7.79
2022-05-13T10:10:00,thn,7.82
2022-05-13T10:11:00,thn,10.54
2022-05-13T10:12:00,thn,9.71
2022-05-13T10:13:00,thn,9.66
2022-05-13T10:14:00,thn,10.47
2022-05-13T10:15:00,thn,10.51
2022-05-13T10:16:00,thn,10.51
2022-05-13T10:17:00,thn,10.63
2022-05-13T10:18:00,thn,7.32
2022-05-13T10:19:00,thn,10.17
2022-05-13T10:20:00,thn,10.21
2022-05-13T10:21:00,thn,14.22
2022-05-13T10:22:00,thn,13.99
2022-05-13T10:23:00,thn,13.99
2022-05-13T10:24:00,thn,16.18
2022-05-13T10:25:00,thn,16.21
2022-05-13T10:26:00,thn,16.28
2022-05-13T10:27:00,thn,14.33
2022-05-13T10:28:00,thn,10.82
2022-05-13T10:29:00,thn,10.41
2022-05-13T10:30:00,thn,10.53
2022-05-13T10:31:00,thn,10.47
2022-05-13T10:32:00,thn,10.38
2022-05-13T10:33:00,thn,8.09
2022-05-13T10:34:00,thn,8.13
2022-05-13T10:35:00,thn,12.40
2022-05-13T10:36:00,thn,12.44
2022-05-13T10:37:00,thn,12.30
2022-05-13T10:38:00,thn,12.43
2022-05-13T10:39:00,thn,12.45
2022-05-13T10:40:00,thn,12.20
2022-05-13T10:41:00,thn,12.18
2022-05-13T10:42:00,thn,12.07
2022-05-13T10:43:00,thn,12.27
2022-05-13T10:44:00,thn,16.29
2022-05-13T10:45:00,thn,18.17
2022-05-13T10:46:00,thn,18.14
2022-05-13T10:47:00,thn,18.29
2022-05-13T10:48:00,thn,18.24
2022-05-13T10:49:00,thn,18.25
2022-05-13T10:50:00,thn,18.24
2022-05-13T10:51:00,thn,15.14
2022-05-13T10:52:00,thn,11.66
2022-05-13T10:53:00,thn,13.93
2022-05-13T10:54:00,thn,16.68
2022-05-13T10:55:00,thn,16.96
2022-05-13T10:56:00,thn,17.01
2022-05-13T10:57:00,thn,17.00
2022-05-13T10:58:00,thn,16.83
2022-05-13T10:59:00,thn,17.29
2022-05-13T11:00:00,thn,14.16
2022-05-13T11:01:00,thn,14.11
2022-05-13T11:02:00,thn,11.82
2022-05-13T11:03:00,thn,11.88
2022-05-13T11:04:00,thn,11.94
2022-05-13T11:05:00,thn,11.99
2022-05-13T11:06:00,thn,13.08
2022-05-13T11:07:00,thn,15.04
2022-05-13T11:08:00,thn,15.02
2022-05-13T11:09:00,thn,15.03
2022-05-13T11:10:00,thn,14.97
2022-05-13T11:11:00,thn,17.85
2022-05-13T11:12:00,thn,17.94
2022-05-13T11:13:00,thn,15.55
2022-05-13T11:14:00,thn,14.83
2022-05-13T11:15:00,thn,14.88
2022-05-13T11:16:00,thn,14.87
2022-05-13T11:17:00,thn,13.13
2022-05-13T11:18:00,thn,13.00
2022-05-13T11:19:00,thn,13.33
2022-05-13T11:20:00,thn,10.38
2022-05-13T11:21:00,thn,18.01
2022-05-13T11:22:00,thn,17.84
2022-05-13T11:23:00,thn,17.86
2022-05-13T11:24:00,thn,17.80
2022-05-13T11:25:00,thn,13.98
2022-05-13T11:26:00,thn,14.43
2022-05-13T11:27:00,thn,14.72
2022-05-13T11:28:00,thn,13.67
2022-05-13T11:29:00,thn,13.79
2022-05-13T11:30:00,thn,17.73
2022-05-13T11:31:00,thn,17.58
2022-05-13T11:32:00,thn,13.55
2022-05-13T11:33:00,thn,13.63
2022-05-13T11:34:00,thn,8.22
2022-05-13T11:35:00,thn,7.27
2022-05-13T11:36:00,thn,10.31
2022-05-13T11:37:00,thn,12.18
2022-05-13T11:38:00,thn,10.44
2022-05-13T11:39:00,thn,10.48
2022-05-13T11:40:00,thn,10.48
2022-05-13T11:41:00,thn,10.49
2022-05-13T11:42:00,thn,10.44
2022-05-13T11:43:00,thn,10.48
2022-05-13T11:44:00,thn,7.80
2022-05-13T11:45:00,thn,12.15
2022-05-13T11:46:00,thn,14.82
2022-05-13T11:47:00,thn,14.89
2022-05-13T11:48:00,thn,14.88
2022-05-13T11:49:00,thn,14.84
2022-05-13T11:50:00,thn,14.86
2022-05-13T11:51:00,thn,18.70
2022-05-13T11:52:00,thn,19.00
2022-05-13T11:53:00,thn,14.07
2022-05-13T11:54:00,thn,13.34
2022-05-13T11:55:00,thn,13.48
2022-05-13T11:56:00,thn,13.36
2022-05-13T11:57:00,thn,10.51
2022-05-13T11:58:00,thn,9.53
2022-05-13T11:59:00,thn,12.67
2022-05-13T12:00:00,thn,12.64
2022-05-13T12:01:00,thn,12.39
2022-05-13T12:02:00,thn,12.33
2022-05-13T12:03:00,thn,10.48
2022-05-13T12:04:00,thn,10.98
2022-05-13T12:05:00,thn,11.91
2022-05-13T12:06:00,thn,13.45
2022-05-13T12:07:00,thn,15.08
2022-05-13T12:08:00,thn,14.12
2022-05-13T12:09:00,thn,16.15
2022-05-13T12:10:00,thn,16.12
2022-05-13T12:11:00,thn,16.12
2022-05-13T12:12:00,thn,16.66
2022-05-13T12:13:00,thn,13.31
2022-05-13T12:14:00,thn,15.64
2022-05-13T12:15:00,thn,13.14
2022-05-13T12:16:00,thn,12.46
2022-05-13T12:17:00,thn,10.07
2022-05-13T12:18:00,thn,9.99
2022-05-13T12:19:00,thn,7.57
2022-05-13T12:20:00,thn,11.51
2022-05-13T12:21:00,thn,11.51
2022-05-13T12:22:00,thn,11.64
2022-05-13T12:23:00,thn,11.60
2022-05-13T12:24:00,thn,11.68
2022-05-13T12:25:00,thn,11.77
2022-05-13T12:26:00,thn,12.09
2022-05-13T12:27:00,thn,14.08
2022-05-13T12:28:00,thn,13.91
2022-05-13T12:29:00,thn,13.80
2022-05-13T12:30:00,thn,13.88
2022-05-13T12:31:00,thn,13.92
2022-05-13T12:32:00,thn,13.72
2022-05-13T12:33:00,thn,13.82
2022-05-13T12:34:00,thn,13.69
2022-05-13T12:35:00,thn,10.09
2022-05-13T12:36:00,thn,10.06
2022-05-13T12:37:00,thn,10.06
2022-05-13T12:38:00,thn,13.10
2022-05-13T12:39:00,thn,12.92
2022-05-13T12:40:00,thn,13.13
2022-05-13T12:41:00,thn,13.16
2022-05-13T12:42:00,thn,10.62
2022-05-13T12:43:00,thn,10.64
2022-05-13T12:44:00,thn,10.64
2022-05-13T12:45:00,thn,10.75
2022-05-13T12:46:00,thn,10.77
2022-05-13T12:47:00,thn,14.63
2022-05-13T12:48:00,thn,14.72
2022-05-13T12:49:00,thn,14.84
2022-05-13T12:50:00,thn,14.81
2022-05-13T12:51:00,thn,14.76
2022-05-13T12:52:00,thn,14.83
2022-05-13T12:53:00,thn,12.26
2022-05-13T12:54:00,thn,7.51
2022-05-13T12:55:00,thn,7.55
2022-05-13T12:56:00,thn,10.56
2022-05-13T12:57:00,thn,13.06
2022-05-13T12:58:00,thn,12.94
2022-05-13T12:59:00,thn,15.33
2022-05-13T13:00:00,thn,15.50
2022-05-13T13:01:00,thn,15.43
2022-05-13T13:02:00,thn,12.80
2022-05-13T13:03:00,thn,16.04
2022-05-13T13:04:00,thn,16.52
2022-05-13T13:05:00,thn,16.52
2022-05-13T13:06:00,thn,17.33
2022-05-13T13:07:00,thn,17.79
2022-05-13T13:08:00,thn,17.77
2022-05-13T13:09:00,thn,17.70
2022-05-13T13:10:00,thn,17.50
2022-05-13T13:11:00,thn,17.61
2022-05-13T13:12:00,thn,15.06
2022-05-13T13:13:00,thn,11.22
2022-05-13T13:14:00,thn,7.28
2022-05-13T13:15:00,thn,7.29
2022-05-13T13:16:00,thn,7.29
2022-05-13T13:17:00,thn,7.32
2022-05-13T13:18:00,thn,7.37
2022-05-13T13:19:00,thn,10.50
2022-05-13T13:20:00,thn,10.78
2022-05-13T13:21:00,thn,14.10
2022-05-13T13:22:00,thn,13.66
2022-05-13T13:23:00,thn,16.15
2022-05-13T13:24:00,thn,16.11
2022-05-13T13:25:00,thn,20.22
2022-05-13T13:26:00,thn,20.35
2022-05-13T13:27:00,thn,18.21
2022-05-13T13:28:00,thn,18.20